N7FEQ Weather Reports


Display with metric or nautical units.
time (UTC)temp
F
wind
direction
speed
MPH
gust
MPH
rain 1hr
in
rain 24hr
in
rain mn
in
humidity
%
barometer
mb
20260506005101 72 0 0.0 0.0 0.00 0.00 0.00 33 1012.6
20260506004041 72 0 0.0 0.0 0.00 0.00 0.00 31 1012.6
20260506003029 72 0 0.0 0.0 0.00 0.00 0.00 32 1012.6
20260506002004 72 0 0.0 0.0 0.00 0.00 0.00 32 1012.6
20260506000941 71 0 0.0 0.0 0.00 0.00 0.00 33 1012.6
20260505235921 72 0 0.0 0.0 0.00 0.00 0.00 33 1012.7
20260505234901 71 0 0.0 0.0 0.00 0.00 0.00 34 1012.7
20260505232827 72 0.0 0.0 0.00 0.00 0.00 35
20260505223906 70 313 3.0 11.0 0.00 0.29 0.00 35 1013.1
20260505222844 70 197 4.0 13.0 0.00 0.29 0.00 35 1013.2
20260505221823 71 0 2.0 9.0 0.00 0.29 0.00 37 1013.3
20260505220803 71 0 1.0 3.0 0.00 0.29 0.00 37 1013.5
20260505215740 70 0 1.0 6.0 0.00 0.29 0.00 38 1013.5
20260505214722 68 0 1.0 5.0 0.00 0.29 0.00 42 1013.7
20260505212641 69 0 2.0 8.0 0.00 0.29 0.00 41 1013.8
20260505211621 67 0 4.0 11.0 0.00 0.29 0.00 45 1013.9
20260505205540 67 0 3.0 11.0 0.00 0.29 0.00 45 1014.0
20260505204526 67 0 3.0 9.0 0.00 0.29 0.00 44 1014.0
20260505203509 69 0 5.0 10.0 0.00 0.29 0.00 40 1014.1
20260505202453 70 0 3.0 10.0 0.00 0.32 0.00 43 1014.0
20260505201441 69 0 1.0 12.0 0.00 0.32 0.00 44 1014.1
20260505194421 67 0 3.0 10.0 0.00 0.33 0.00 46 1014.5
20260505193409 65 83 2.0 8.0 0.00 0.33 0.00 54 1014.4
20260505192402 62 0 3.0 9.0 0.00 0.33 0.00 56 1014.5
20260505191404 63 0 3.0 9.0 0.00 0.33 0.00 53 1014.4
20260505190402 62 0 2.0 5.0 0.00 0.33 0.00 60 1014.4
20260505185352 61 0 2.0 6.0 0.00 0.33 0.00 59 1014.5
20260505184343 59 0 3.0 8.0 0.00 0.33 0.00 62 1014.4
20260505183329 58 182 2.0 4.0 0.00 0.33 0.00 65 1014.4
20260505182311 56 183 0.0 1.0 0.00 0.33 0.00 69 1014.4
20260505181301 55 178 0.0 0.0 0.00 0.33 0.00 69 1014.4
20260505180244 54 181 0.0 0.0 0.00 0.33 0.00 71 1014.4
20260505175221 53 182 0.0 0.0 0.00 0.33 0.00 73 1014.2
20260505174159 53 184 0.0 0.0 0.00 0.33 0.00 73 1014.1
20260505173142 53 0 0.0 0.0 0.00 0.33 0.00 73 1014.0
20260505165033 51 0 0.0 0.0 0.00 0.33 0.00 78 1013.8
20260505164028 50 0 0.0 0.0 0.00 0.33 0.00 80 1013.8
20260505163029 50 0 1.0 3.0 0.00 0.33 0.00 79 1013.8
20260505162027 50 0 0.0 2.0 0.00 0.34 0.00 80 1013.7
20260505161006 49 0 2.0 6.0 0.00 0.34 0.00 81 1013.4
20260505152846 47 0 4.0 6.0 0.00 0.35 0.00 83 1013.1
20260505151826 47 0 3.0 6.0 0.00 0.35 0.00 83 1013.1
20260505150805 47 0 0.0 3.0 0.00 0.35 0.00 84 1013.1
20260505140608 46 0 4.0 8.0 0.00 0.35 0.00 83 1012.4
20260505123338 44 0 8.0 12.0 0.00 0.35 0.00 83 1011.6
20260505121316 44 0 8.0 11.0 0.00 0.35 0.00 83 1011.7
20260505120302 44 0 8.0 13.0 0.00 0.35 0.00 83 1011.7
20260505115249 44 0 8.0 12.0 0.00 0.35 0.00 83 1011.6
20260505114251 44 0 7.0 13.0 0.00 0.35 0.00 83 1011.6
20260505113239 44 0 5.0 8.0 0.00 0.35 0.00 84 1011.6
20260505112235 44 0 5.0 9.0 0.00 0.35 0.00 84 1011.6
20260505111227 44 0 7.0 11.0 0.00 0.35 0.00 84 1011.6
20260505101109 44 0 3.0 5.0 0.00 0.35 0.00 85 1011.9
20260505100055 44 0 5.0 8.0 0.00 0.35 0.00 84 1011.9
20260505095028 44 0 5.0 9.0 0.00 0.35 0.00 84 1011.9
20260505094009 44 0 6.0 11.0 0.00 0.35 0.00 85 1012.0
20260505092959 44 0 7.0 12.0 0.00 0.35 0.00 84 1011.9
20260505091946 44 0 4.0 9.0 0.00 0.35 0.00 84 1012.0
20260505090918 44 0 6.0 12.0 0.00 0.35 0.00 85 1012.1
20260505084836 44 0 5.0 10.0 0.00 0.35 0.00 84 1012.0
20260505083820 44 0 6.0 10.0 0.00 0.35 0.00 85 1012.1
20260505082756 44 0 3.0 6.0 0.00 0.35 0.00 86 1012.4
20260505081739 43 0 4.0 9.0 0.00 0.35 0.00 85 1012.4
20260505075659 43 0 5.0 10.0 0.00 0.35 0.00 84 1012.6
20260505074639 43 0 7.0 13.0 0.00 0.35 0.00 85 1012.7
20260505073616 43 0 3.0 8.0 0.00 0.35 0.00 88 1012.7
20260505072556 43 0 2.0 5.0 0.00 0.35 0.00 86 1013.0
20260505071539 44 314 1.0 4.0 0.00 0.35 0.00 85 1012.8
20260505070518 44 319 2.0 4.0 0.00 0.35 0.00 84 1012.5
20260505064446 44 0 10.0 16.0 0.00 0.35 0.35 82 1012.4
20260505062411 44 0 7.0 14.0 0.00 0.35 0.35 81 1011.3
20260505061351 45 0 7.0 16.0 0.00 0.35 0.35 81 1011.4
20260505060330 45 288 8.0 15.0 0.00 0.35 0.35 82 1011.4
20260505055316 44 0 9.0 16.0 0.00 0.35 0.35 83 1011.4
20260505054249 44 0 10.0 17.0 0.00 0.35 0.35 83 1011.6
20260505053229 44 0 11.0 17.0 0.01 0.35 0.35 83 1011.9
20260505052209 44 0 11.0 21.0 0.01 0.35 0.35 83 1011.9
20260505051149 44 0 14.0 25.0 0.01 0.35 0.35 83 1012.3
20260505050132 44 0 15.0 23.0 0.01 0.35 0.35 83 1012.4
20260505040955 44 0 11.0 17.0 0.04 0.34 0.34 86 1011.7
20260505035935 44 0 10.0 18.0 0.04 0.33 0.33 85 1011.9
20260505034916 43 0 15.0 23.0 0.03 0.32 0.32 84 1012.3
20260505033855 43 0 16.0 23.0 0.03 0.32 0.32 84 1012.0
20260505032838 43 0 13.0 24.0 0.03 0.32 0.32 84 1011.8
20260505031816 43 0 17.0 25.0 0.02 0.31 0.31 84 1011.7
20260505025734 44 0 15.0 22.0 0.01 0.29 0.29 83 1011.9
20260505023657 44 0 15.0 25.0 0.04 0.29 0.29 82 1012.0
20260505021619 44 0 14.0 25.0 0.14 0.29 0.29 87 1011.4
20260505020557 44 0 17.0 27.0 0.15 0.29 0.29 85 1011.4
20260505014531 45 0 16.0 26.0 0.20 0.28 0.28 85 1011.8
20260505013506 45 0 12.0 20.0 0.19 0.25 0.25 84 1012.5
20260505011436 47 0 7.0 13.0 0.09 0.15 0.15 83 1012.6
20260505010423 47 0 10.0 22.0 0.08 0.14 0.14 81 1011.9